[[{"header":{"parameterUnit":"m.s-1","parameterCategory":2,"la1":30.2991,"la2":30.254,"lo1":-89.0895,"lo2":-89.0444,"dy":0.0017,"dx":0.0017,"nx":28,"ny":28,"refTime":"2024-10-15T09:00:00:Z","depth":"0","parameterNumber":2,"parameterNumberName":"U-component_of_CURRENTS"},"data":[0,0,0,0,0,0,0,0,0,0,0,0,0,0,0,0,0,0,0,0,0,0,0,0,0,0,0,0,0,0,0,0,0,0,0,0,0,0,0,0,0,0,0,0,0,0,0,0,0,0,0,0,0,0,0,0,0,0,-0.2496,-0.2497,0,-0.2505,-0.2505,-0.2504,-0.2485,-0.2484,-0.2484,-0.2483,-0.2452,-0.2451,-0.2451,0,0,0,0,0,0,0,0,0,0,0,0,0,-0.2433,-0.2434,-0.2496,-0.2497,-0.2497,-0.2505,-0.2505,-0.2504,-0.2485,-0.2484,-0.2484,-0.2483,-0.2452,-0.2451,-0.2451,0,0,0,0,0,0,0,0,0,0,0,0,0,-0.245,-0.2435,-0.2496,-0.249,-0.249,-0.2505,-0.2505,-0.2504,-0.2485,-0.2484,-0.2484,-0.2483,-0.2452,-0.2452,-0.2451,-0.2457,0,0,-0.2448,-0.2448,0,0,0,0,0,0,0,0,-0.2449,-0.2452,-0.2491,-0.2491,-0.2491,-0.2496,-0.2471,-0.2487,-0.2485,-0.2484,-0.2483,-0.2483,-0.2465,-0.2463,-0.2462,-0.2455,-0.2454,-0.2448,-0.2448,-0.2448,-0.2447,0,0,0,0,0,0,0,-0.2448,-0.2451,-0.2497,-0.2491,-0.2491,-0.2477,-0.2479,-0.2474,-0.2474,-0.2484,-0.2483,-0.2489,-0.2464,-0.2463,-0.2461,-0.2453,-0.2448,-0.2448,-0.2447,-0.2447,-0.2446,-0.2446,0,0,0,0,0,0,-0.2456,-0.2451,-0.2496,-0.2497,-0.2472,-0.2479,-0.2481,-0.2492,-0.2475,-0.2473,-0.2489,-0.2488,-0.2465,-0.2462,-0.246,-0.2468,-0.2448,-0.2447,-0.2446,-0.2446,-0.2446,-0.2447,0,0,0,0,0,0,-0.2454,-0.246,-0.2496,-0.2476,-0.248,-0.2481,-0.2494,-0.2493,-0.2493,-0.248,-0.2477,-0.2491,-0.2464,-0.2461,-0.2457,-0.2466,-0.2447,-0.2446,-0.2445,-0.2446,-0.2446,-0.2482,0,0,0,0,0,0,-0.2453,-0.2459,-0.2465,-0.2477,-0.2482,-0.251,-0.2495,-0.2493,-0.2499,-0.2497,-0.2481,-0.2478,-0.2464,-0.2458,-0.2456,-0.2465,-0.2445,-0.2445,-0.2445,-0.2446,-0.248,-0.2484,-0.2487,0,0,0,0,0,-0.245,-0.2463,-0.2465,-0.2471,-0.2491,-0.2511,-0.2512,-0.2508,-0.25,-0.2505,-0.2491,-0.2478,-0.2462,-0.2458,-0.2456,-0.2464,-0.2444,-0.2445,-0.2446,-0.2479,-0.2483,-0.2487,0,0,0,0,0,0,-0.2437,-0.2463,-0.2465,-0.2485,-0.25,-0.2509,-0.2512,-0.2513,-0.2507,-0.2501,-0.2484,-0.248,-0.248,-0.2468,-0.2464,-0.2466,-0.2451,-0.2452,-0.2477,-0.2481,-0.2484,-0.2494,-0.2445,0,0,0,0,0,-0.2439,-0.2453,-0.2477,-0.249,-0.25,-0.2507,-0.2512,-0.2515,-0.2515,-0.2512,-0.2501,-0.2488,-0.2483,-0.2478,-0.247,-0.2473,-0.2474,-0.2476,-0.248,-0.2483,-0.2489,-0.2494,-0.2499,-0.245,-0.245,-0.245,0,0,-0.2436,-0.2453,-0.2459,-0.2488,-0.2496,-0.2517,-0.2508,-0.2523,-0.2536,-0.2509,-0.2514,-0.25,-0.2486,-0.2487,-0.2486,-0.2478,-0.25,-0.2484,-0.2486,-0.2492,-0.2496,-0.2501,-0.2505,-0.2451,-0.245,-0.245,0,0,-0.244,-0.2455,-0.2469,-0.2489,-0.2511,-0.2521,-0.2529,-0.2543,-0.2544,-0.2551,-0.2535,-0.2528,-0.2518,-0.2512,-0.2507,-0.2525,-0.2517,-0.252,-0.2545,-0.255,-0.2554,-0.2558,-0.2579,-0.2585,-0.2522,-0.2522,-0.2522,0,-0.2434,-0.246,-0.2475,-0.2499,-0.2516,-0.2527,-0.2549,-0.2559,-0.2567,-0.2572,-0.2556,-0.2549,-0.2532,-0.2541,-0.2542,-0.2533,-0.2539,-0.2531,-0.2555,-0.2558,-0.2561,-0.2583,-0.2588,-0.2523,-0.2523,-0.2523,-0.2523,0,-0.2451,-0.2475,-0.2487,-0.2522,-0.2542,-0.2563,-0.2588,-0.2601,-0.26,-0.2606,-0.2613,-0.2592,-0.2586,-0.2581,-0.2564,-0.258,-0.258,-0.2559,-0.2546,-0.2569,-0.259,-0.2595,-0.2526,-0.2525,-0.2525,-0.2524,0,0,-0.2425,-0.2486,-0.2488,-0.2512,-0.2556,-0.2575,-0.2606,-0.2636,-0.2659,-0.2654,-0.2676,-0.2657,-0.2644,-0.2637,-0.2618,-0.2621,-0.2645,-0.26,-0.2599,-0.2625,-0.2671,-0.2711,-0.272,-0.2627,-0.2627,-0.2628,-0.2682,0,-0.243,-0.2473,-0.2507,-0.2549,-0.2575,-0.2609,-0.2641,-0.2669,-0.2685,-0.271,-0.2698,-0.2704,-0.2667,-0.2662,-0.266,-0.2649,-0.2657,-0.2633,-0.2643,-0.2644,-0.2678,-0.2726,-0.2711,-0.2762,-0.2687,-0.2688,-0.2689,0,-0.2429,-0.2462,-0.2502,-0.2569,-0.2585,-0.261,-0.2664,-0.2695,-0.2738,-0.2751,-0.276,-0.2756,-0.2761,-0.2721,-0.2723,-0.2709,-0.2694,-0.2685,-0.2686,-0.2714,-0.2692,-0.2724,-0.2773,-0.276,-0.2696,-0.2695,-0.2695,0,-0.239,-0.2458,-0.2487,-0.251,-0.2586,-0.2607,-0.2641,-0.2694,-0.2727,-0.2772,-0.2801,-0.2806,-0.281,-0.2794,-0.2778,-0.2748,-0.2792,-0.2745,-0.2773,-0.2775,-0.2761,-0.2762,-0.2801,-0.2751,-0.2751,-0.2751,-0.275,0,-0.2379,-0.2401,-0.2469,-0.2485,-0.2524,-0.2583,-0.2626,-0.2667,-0.2732,-0.2779,-0.2807,-0.2845,-0.2825,-0.2849,-0.2817,-0.2832,-0.2823,-0.2798,-0.2797,-0.2775,-0.2777,-0.2762,-0.2757,-0.2753,-0.2752,-0.2752,-0.2751,0,-0.2323,-0.2373,-0.2408,-0.2481,-0.2504,-0.2522,-0.2606,-0.264,-0.2715,-0.2779,-0.2796,-0.2874,-0.2915,-0.2919,-0.2914,-0.2891,-0.2869,-0.2896,-0.2888,-0.2885,-0.2887,-0.2885,-0.2872,-0.2799,-0.2932,-0.2934,-0.2935,0,-0.2297,-0.2309,-0.2379,-0.2395,-0.2423,-0.2468,-0.2504,-0.2601,-0.2647,-0.2796,-0.2823,-0.2911,-0.2971,-0.3022,-0.3022,-0.3026,-0.2928,-0.2983,-0.2917,-0.2913,-0.2908,-0.2833,-0.2764,-0.2912,-0.2913,-0.2914,-0.2915,0,-0.2233,-0.2253,-0.2279,-0.2316,-0.235,-0.2399,-0.246,-0.2509,-0.2637,-0.273,-0.2855,-0.293,-0.3039,-0.3084,-0.3118,-0.3076,-0.2938,-0.2998,-0.2984,-0.2905,-0.2834,-0.2754,-0.2863,-0.2921,-0.292,-0.292,-0.292,-0.2919,-0.2163,-0.216,-0.219,-0.2218,-0.2262,-0.2308,-0.2316,-0.2442,-0.2542,-0.2708,-0.2834,-0.3019,-0.3114,-0.3187,-0.3158,-0.3114,-0.3017,-0.3003,-0.3005,-0.2931,-0.285,-0.2997,-0.3059,-0.3059,-0.306,-0.306,-0.306,0,-0.2065,-0.2074,-0.2093,-0.2123,-0.213,-0.2188,-0.2266,-0.2287,-0.2398,-0.2679,-0.2831,-0.3169,-0.3205,-0.3263,-0.3275,-0.3167,-0.3009,-0.3033,-0.2908,-0.2835,-0.2969,-0.2959,-0.3016,-0.3016,-0.3016,-0.3016,-0.3016,-0.3016,-0.2012,-0.1987,-0.2001,-0.1975,-0.1995,-0.1973,-0.1992,-0.2081,-0.2255,-0.2596,-0.2942,-0.3247,-0.3291,-0.3481,-0.336,-0.3197,-0.3027,-0.2936,-0.2864,-0.2976,-0.2972,-0.2968,-0.2955,-0.3011,-0.3011,-0.2647,-0.2645,-0.2643]},{"header":{"parameterUnit":"m.s-1","parameterCategory":2,"la1":30.2991,"la2":30.254,"lo1":-89.0895,"lo2":-89.0444,"dy":0.0017,"dx":0.0017,"nx":28,"ny":28,"refTime":"2024-10-15T09:00:00:Z","depth":"0","parameterNumber":3,"parameterNumberName":"V-component_of_CURRENTS"},"data":[0,0,0,0,0,0,0,0,0,0,0,0,0,0,0,0,0,0,0,0,0,0,0,0,0,0,0,0,0,0,0,0,0,0,0,0,0,0,0,0,0,0,0,0,0,0,0,0,0,0,0,0,0,0,0,0,0,0,-0.0439,-0.0438,0,-0.0344,-0.0343,-0.0342,-0.0289,-0.0289,-0.0289,-0.0289,-0.0183,-0.018,-0.0178,0,0,0,0,0,0,0,0,0,0,0,0,0,-0.0525,-0.0524,-0.0439,-0.0438,-0.0437,-0.0344,-0.0343,-0.0342,-0.0289,-0.0289,-0.0289,-0.0289,-0.0184,-0.0181,-0.0177,0,0,0,0,0,0,0,0,0,0,0,0,0,-0.0465,-0.0524,-0.0439,-0.0399,-0.0395,-0.0345,-0.0343,-0.0341,-0.0289,-0.0289,-0.0289,-0.0289,-0.0185,-0.0181,-0.0177,-0.0157,0,0,-0.0165,-0.0163,0,0,0,0,0,0,0,0,-0.0468,-0.0462,-0.0406,-0.0402,-0.0397,-0.0328,-0.0334,-0.0279,-0.0289,-0.0329,-0.0289,-0.0289,-0.0231,-0.0223,-0.0206,-0.0152,-0.0147,-0.0164,-0.0162,-0.016,-0.0159,0,0,0,0,0,0,0,-0.0473,-0.0465,-0.0401,-0.0405,-0.0399,-0.0369,-0.0361,-0.0323,-0.0282,-0.0326,-0.0322,-0.0311,-0.0228,-0.021,-0.0203,-0.0146,-0.0164,-0.0161,-0.0158,-0.0157,-0.0061,-0.0061,0,0,0,0,0,0,-0.0487,-0.0469,-0.0404,-0.0399,-0.0433,-0.0368,-0.0359,-0.0351,-0.0283,-0.0272,-0.0312,-0.0309,-0.0217,-0.0208,-0.0199,-0.0165,-0.016,-0.0156,-0.0154,-0.0061,-0.0061,-0.0061,0,0,0,0,0,0,-0.0489,-0.0482,-0.0408,-0.0432,-0.042,-0.0367,-0.0358,-0.0349,-0.033,-0.0272,-0.0261,-0.0303,-0.0216,-0.0205,-0.0165,-0.0161,-0.0155,-0.0151,-0.0061,-0.0061,-0.0061,-0.0102,0,0,0,0,0,0,-0.0492,-0.0484,-0.0486,-0.0433,-0.0419,-0.0382,-0.0358,-0.0347,-0.0324,-0.032,-0.0261,-0.0251,-0.0215,-0.0171,-0.0161,-0.0155,-0.0148,-0.0062,-0.0061,-0.0061,-0.01,-0.0103,-0.0105,0,0,0,0,0,-0.0496,-0.05,-0.0486,-0.0478,-0.0423,-0.0382,-0.0373,-0.0334,-0.0324,-0.0317,-0.0276,-0.0253,-0.0162,-0.0168,-0.0156,-0.0149,-0.0062,-0.0061,-0.0061,-0.0099,-0.0102,-0.0105,0,0,0,0,0,0,-0.0539,-0.0493,-0.0478,-0.0468,-0.043,-0.0374,-0.0365,-0.0339,-0.0301,-0.03,-0.0248,-0.0234,-0.0199,-0.017,-0.0177,-0.0121,-0.0109,-0.0107,-0.0143,-0.0145,-0.0147,-0.0157,-0.0144,0,0,0,0,0,-0.055,-0.0542,-0.0491,-0.0484,-0.0468,-0.0419,-0.0399,-0.0372,-0.033,-0.0314,-0.0271,-0.0228,-0.0189,-0.0164,-0.0127,-0.0094,-0.0069,-0.0083,-0.0085,-0.0088,-0.0087,-0.0049,-0.0048,-0.006,-0.006,-0.006,0,0,-0.0566,-0.054,-0.0536,-0.0493,-0.0463,-0.0441,-0.0406,-0.038,-0.036,-0.0308,-0.0273,-0.0235,-0.0183,-0.0146,-0.0128,-0.012,-0.0071,-0.0087,-0.0089,-0.0088,-0.0049,-0.0048,-0.0047,-0.006,-0.006,-0.006,0,0,-0.0593,-0.057,-0.0571,-0.0541,-0.0498,-0.0464,-0.046,-0.0404,-0.0377,-0.0338,-0.0298,-0.0258,-0.0198,-0.0157,-0.0129,-0.0121,-0.0087,-0.0112,-0.0125,-0.0088,-0.0087,-0.0086,-0.0056,-0.0052,-0.0109,-0.011,-0.011,0,-0.0616,-0.0606,-0.0565,-0.0554,-0.0535,-0.0479,-0.0472,-0.0432,-0.0371,-0.0349,-0.0335,-0.0242,-0.0201,-0.015,-0.0146,-0.0126,-0.0103,-0.012,-0.0092,-0.009,-0.0088,-0.0057,-0.0052,-0.0111,-0.0111,-0.0111,-0.0111,0,-0.0636,-0.0628,-0.0625,-0.0593,-0.0567,-0.0553,-0.0494,-0.0465,-0.0429,-0.0385,-0.033,-0.0269,-0.0215,-0.0195,-0.0165,-0.0128,-0.0116,-0.0103,-0.0088,-0.0089,-0.0057,-0.0051,-0.0114,-0.0114,-0.0113,-0.0112,0,0,-0.0686,-0.065,-0.0649,-0.0646,-0.0589,-0.0573,-0.0536,-0.0485,-0.0466,-0.0399,-0.0366,-0.029,-0.0255,-0.0222,-0.0177,-0.014,-0.0106,-0.0118,-0.0116,-0.0094,-0.003,0.0025,0.0038,-0.009,-0.0089,-0.0088,-0.0015,0,-0.0716,-0.0722,-0.0683,-0.0682,-0.0681,-0.0618,-0.0592,-0.0538,-0.0483,-0.0437,-0.0357,-0.0312,-0.0265,-0.0244,-0.0196,-0.0125,-0.0091,-0.0127,-0.0026,-0.0024,0.0021,0.0047,0.0052,0.0122,-0.0009,-0.0008,-0.0007,0,-0.0745,-0.0747,-0.0759,-0.0737,-0.0729,-0.0715,-0.0669,-0.0634,-0.0547,-0.0505,-0.0433,-0.0368,-0.0285,-0.0261,-0.0133,-0.0158,-0.0102,-0.005,-0.0045,0.0026,0.0044,0.0104,0.0139,0.0284,0.0003,0.0002,0.0002,0,-0.0809,-0.0797,-0.0815,-0.0806,-0.0769,-0.0761,-0.0735,-0.0661,-0.0639,-0.0548,-0.0524,-0.0408,-0.0358,-0.0258,-0.0127,-0.0135,0.0006,0.0007,0.0108,0.0112,0.0148,0.0155,0.0332,0.0077,0.0077,0.0077,0.0077,0,-0.0855,-0.0866,-0.0852,-0.0861,-0.0886,-0.0828,-0.083,-0.0782,-0.0719,-0.0702,-0.0571,-0.053,-0.0357,-0.0245,-0.0137,0.0023,0.0004,0.0116,0.0142,0.0135,0.0139,0.0292,0.0362,0.008,0.0079,0.0078,0.0078,0,-0.0915,-0.0902,-0.0928,-0.0916,-0.0917,-0.0934,-0.091,-0.091,-0.0831,-0.0806,-0.0782,-0.062,-0.0461,-0.028,-0.0107,0.0008,0.0236,0.0201,0.0185,0.0209,0.0442,0.0508,0.0722,0.0741,0.0326,0.0328,0.0329,0,-0.0942,-0.0963,-0.0988,-0.1019,-0.1017,-0.1032,-0.1046,-0.0982,-0.0976,-0.0865,-0.0862,-0.0689,-0.0573,-0.0259,-0.0012,0.0215,0.0305,0.0346,0.0336,0.0476,0.0568,0.0615,0.0616,0.0361,0.0363,0.0364,0.0365,0,-0.0997,-0.1009,-0.1037,-0.1116,-0.1149,-0.1182,-0.1189,-0.1203,-0.1126,-0.1092,-0.1005,-0.0898,-0.0547,-0.0248,0.0091,0.0222,0.0453,0.0382,0.0532,0.0627,0.0685,0.0706,0.0287,0.0378,0.0377,0.0376,0.0375,0.0374,-0.1036,-0.1084,-0.1138,-0.1212,-0.1264,-0.1326,-0.1368,-0.1368,-0.1374,-0.132,-0.1148,-0.0963,-0.0447,0.0049,0.0211,0.061,0.0567,0.0701,0.0771,0.0808,0.0835,0.0451,0.0571,0.0571,0.0571,0.0571,0.0571,0,-0.1086,-0.115,-0.1232,-0.1326,-0.1417,-0.1411,-0.1464,-0.151,-0.155,-0.143,-0.1323,-0.0738,-0.0269,0.0205,0.0816,0.1007,0.0989,0.1085,0.1145,0.1122,0.0791,0.0801,0.0971,0.0971,0.0971,0.097,0.097,0.097,-0.1114,-0.1212,-0.127,-0.1445,-0.1514,-0.1629,-0.1671,-0.1727,-0.1672,-0.1495,-0.118,-0.0907,-0.0081,0.096,0.1464,0.1456,0.1541,0.1537,0.1582,0.1366,0.1335,0.1305,0.1332,0.161,0.1611,0.1846,0.1849,0.1851]}],[{"header":{"parameterUnit":"m.s-1","parameterCategory":2,"la1":30.2991,"la2":30.254,"lo1":-89.0895,"lo2":-89.0444,"dy":0.0017,"dx":0.0017,"nx":28,"ny":28,"refTime":"2024-10-15T09:00:00:Z","depth":"2","parameterNumber":2,"parameterNumberName":"U-component_of_CURRENTS"},"data":[0,0,0,0,0,0,0,0,0,0,0,0,0,0,0,0,0,0,0,0,0,0,0,0,0,0,0,0,0,0,0,0,0,0,0,0,0,0,0,0,0,0,0,0,0,0,0,0,0,0,0,0,0,0,0,0,0,0,-0.245,-0.2451,0,-0.2458,-0.2458,-0.2458,-0.244,-0.2439,-0.2439,-0.2439,-0.2408,-0.2408,-0.2407,0,0,0,0,0,0,0,0,0,0,0,0,0,-0.2388,-0.2389,-0.245,-0.2451,-0.2451,-0.2459,-0.2458,-0.2458,-0.244,-0.2439,-0.2439,-0.2439,-0.2409,-0.2408,-0.2407,0,0,0,0,0,0,0,0,0,0,0,0,0,-0.2405,-0.2389,-0.245,-0.2445,-0.2445,-0.2459,-0.2458,-0.2458,-0.244,-0.2439,-0.2439,-0.2438,-0.2409,-0.2408,-0.2407,-0.2412,0,0,-0.2405,-0.2405,0,0,0,0,0,0,0,0,-0.2404,-0.2406,-0.2445,-0.2445,-0.2445,-0.245,-0.2425,-0.2442,-0.244,-0.2439,-0.2439,-0.2438,-0.2421,-0.2419,-0.2418,-0.241,-0.2409,-0.2405,-0.2404,-0.2404,-0.2404,0,0,0,0,0,0,0,-0.2403,-0.2406,-0.245,-0.2446,-0.2446,-0.2432,-0.2434,-0.2428,-0.2429,-0.2439,-0.2438,-0.2444,-0.242,-0.2419,-0.2417,-0.2409,-0.2405,-0.2404,-0.2404,-0.2403,-0.2402,-0.2403,0,0,0,0,0,0,-0.241,-0.2405,-0.245,-0.2451,-0.2426,-0.2434,-0.2436,-0.2447,-0.243,-0.2428,-0.2444,-0.2443,-0.242,-0.2418,-0.2416,-0.2425,-0.2404,-0.2403,-0.2403,-0.2402,-0.2403,-0.2403,0,0,0,0,0,0,-0.2409,-0.2414,-0.245,-0.243,-0.2434,-0.2436,-0.2448,-0.2447,-0.2448,-0.2436,-0.2432,-0.2447,-0.242,-0.2417,-0.2413,-0.2423,-0.2403,-0.2402,-0.2402,-0.2402,-0.2403,-0.2439,0,0,0,0,0,0,-0.2407,-0.2414,-0.242,-0.2431,-0.2436,-0.2464,-0.2449,-0.2448,-0.2454,-0.2452,-0.2437,-0.2433,-0.2419,-0.2415,-0.2412,-0.2422,-0.2402,-0.2401,-0.2402,-0.2403,-0.2437,-0.2441,-0.2444,0,0,0,0,0,-0.2405,-0.2418,-0.242,-0.2425,-0.2445,-0.2465,-0.2465,-0.2462,-0.2455,-0.246,-0.2447,-0.2434,-0.2418,-0.2414,-0.2412,-0.2421,-0.2401,-0.2402,-0.2403,-0.2436,-0.244,-0.2444,0,0,0,0,0,0,-0.2392,-0.2418,-0.242,-0.244,-0.2454,-0.2463,-0.2466,-0.2467,-0.2462,-0.2457,-0.244,-0.2436,-0.2436,-0.2424,-0.2421,-0.2423,-0.2407,-0.2408,-0.2433,-0.2437,-0.2441,-0.2451,-0.2401,0,0,0,0,0,-0.2394,-0.2408,-0.2432,-0.2445,-0.2455,-0.2461,-0.2467,-0.2469,-0.247,-0.2467,-0.2456,-0.2445,-0.2439,-0.2435,-0.2427,-0.2429,-0.243,-0.2433,-0.2436,-0.2439,-0.2446,-0.2451,-0.2456,-0.2406,-0.2406,-0.2406,0,0,-0.2391,-0.2408,-0.2414,-0.2442,-0.245,-0.2471,-0.2463,-0.2477,-0.2491,-0.2464,-0.247,-0.2456,-0.2442,-0.2444,-0.2443,-0.2435,-0.2457,-0.2441,-0.2443,-0.2449,-0.2453,-0.2457,-0.2462,-0.2407,-0.2407,-0.2407,0,0,-0.2395,-0.241,-0.2425,-0.2443,-0.2466,-0.2476,-0.2484,-0.2498,-0.25,-0.2507,-0.2491,-0.2485,-0.2475,-0.2469,-0.2464,-0.2482,-0.2474,-0.2477,-0.2503,-0.2507,-0.2511,-0.2515,-0.2537,-0.2542,-0.2479,-0.2479,-0.2479,0,-0.239,-0.2415,-0.243,-0.2454,-0.247,-0.2482,-0.2504,-0.2513,-0.2522,-0.2527,-0.2512,-0.2505,-0.2488,-0.2498,-0.2499,-0.249,-0.2496,-0.2489,-0.2512,-0.2516,-0.2519,-0.254,-0.2545,-0.2481,-0.248,-0.248,-0.248,0,-0.2406,-0.243,-0.2442,-0.2476,-0.2496,-0.2516,-0.2541,-0.2555,-0.2555,-0.2562,-0.2569,-0.2548,-0.2543,-0.2538,-0.2521,-0.2538,-0.2538,-0.2517,-0.2504,-0.2526,-0.2547,-0.2552,-0.2483,-0.2483,-0.2482,-0.2482,0,0,-0.2381,-0.2441,-0.2443,-0.2467,-0.251,-0.2528,-0.256,-0.259,-0.2612,-0.2609,-0.2631,-0.2612,-0.26,-0.2594,-0.2576,-0.2578,-0.2603,-0.2558,-0.2557,-0.2583,-0.2629,-0.2667,-0.2676,-0.2585,-0.2585,-0.2586,-0.264,0,-0.2386,-0.2428,-0.2461,-0.2502,-0.2528,-0.2562,-0.2593,-0.2622,-0.2638,-0.2663,-0.2652,-0.2659,-0.2623,-0.2619,-0.2617,-0.2607,-0.2615,-0.2591,-0.2601,-0.2602,-0.2634,-0.2682,-0.2391,-0.2418,-0.2645,-0.2646,-0.2647,0,-0.2385,-0.2416,-0.2456,-0.2522,-0.2537,-0.2563,-0.2616,-0.2647,-0.2691,-0.2704,-0.2714,-0.2711,-0.2716,-0.2678,-0.268,-0.2667,-0.2652,-0.2644,-0.2645,-0.2671,-0.2648,-0.2429,-0.2419,-0.2655,-0.2654,-0.2653,-0.2653,0,-0.2346,-0.2412,-0.2441,-0.2463,-0.2539,-0.256,-0.2593,-0.2647,-0.268,-0.2725,-0.2755,-0.2761,-0.2765,-0.275,-0.2735,-0.2706,-0.275,-0.2703,-0.2729,-0.2732,-0.2483,-0.2463,-0.2709,-0.2709,-0.2709,-0.2709,-0.2709,0,-0.2334,-0.2357,-0.2424,-0.2439,-0.2478,-0.2536,-0.2579,-0.2621,-0.2686,-0.2732,-0.2761,-0.28,-0.2781,-0.2805,-0.2774,-0.2788,-0.278,-0.2755,-0.2754,-0.2491,-0.2473,-0.2668,-0.2662,-0.2711,-0.2711,-0.271,-0.271,0,-0.228,-0.2329,-0.2363,-0.2435,-0.2459,-0.2477,-0.256,-0.2594,-0.2669,-0.2733,-0.275,-0.2828,-0.2869,-0.2874,-0.287,-0.2847,-0.2849,-0.2851,-0.2568,-0.2534,-0.2815,-0.2811,-0.2883,-0.2884,-0.2886,-0.2887,-0.2889,0,-0.2254,-0.2266,-0.2334,-0.2351,-0.2379,-0.2424,-0.246,-0.2555,-0.2601,-0.2749,-0.2776,-0.2864,-0.2913,-0.2964,-0.2896,-0.288,-0.2916,-0.2648,-0.2545,-0.2845,-0.2835,-0.2828,-0.2822,-0.2217,-0.2212,-0.2208,-0.2206,0,-0.219,-0.2211,-0.2236,-0.2272,-0.2306,-0.2355,-0.2415,-0.2463,-0.259,-0.2673,-0.2796,-0.2861,-0.2905,-0.2776,-0.2782,-0.2716,-0.263,-0.2583,-0.2933,-0.2255,-0.2231,-0.2218,-0.223,-0.2173,-0.2176,-0.2179,-0.218,-0.2182,-0.2121,-0.2118,-0.2148,-0.2176,-0.222,-0.2264,-0.2271,-0.236,-0.2445,-0.2527,-0.2686,-0.2698,-0.2662,-0.2547,-0.2453,-0.2359,-0.2532,-0.2381,-0.2384,-0.2393,-0.2344,-0.2328,-0.2279,-0.2282,-0.2285,-0.2288,-0.2291,0,-0.2011,-0.2033,-0.2051,-0.2081,-0.2072,-0.2146,-0.2221,-0.2187,-0.2239,-0.2352,-0.2423,-0.2216,-0.2162,-0.2151,-0.1959,-0.1965,-0.1843,-0.1883,-0.168,-0.1715,-0.1745,-0.1655,-0.141,-0.1408,-0.1406,-0.1404,0,0,-0.1955,-0.1923,-0.1936,-0.1902,-0.1935,-0.1886,-0.1902,-0.1886,-0.1912,-0.1898,-0.1911,-0.2064,-0.2117,-0.177,-0.1676,-0.1529,-0.1601,-0.1448,-0.2145,-0.194,-0.1968,-0.2019,-0.1922,0,0,0,0,0]},{"header":{"parameterUnit":"m.s-1","parameterCategory":2,"la1":30.2991,"la2":30.254,"lo1":-89.0895,"lo2":-89.0444,"dy":0.0017,"dx":0.0017,"nx":28,"ny":28,"refTime":"2024-10-15T09:00:00:Z","depth":"2","parameterNumber":3,"parameterNumberName":"V-component_of_CURRENTS"},"data":[0,0,0,0,0,0,0,0,0,0,0,0,0,0,0,0,0,0,0,0,0,0,0,0,0,0,0,0,0,0,0,0,0,0,0,0,0,0,0,0,0,0,0,0,0,0,0,0,0,0,0,0,0,0,0,0,0,0,-0.039,-0.0389,0,-0.0297,-0.0296,-0.0295,-0.0243,-0.0243,-0.0243,-0.0243,-0.0138,-0.0135,-0.0133,0,0,0,0,0,0,0,0,0,0,0,0,0,-0.0475,-0.0474,-0.039,-0.0389,-0.0388,-0.0297,-0.0296,-0.0294,-0.0243,-0.0243,-0.0243,-0.0243,-0.0139,-0.0136,-0.0133,0,0,0,0,0,0,0,0,0,0,0,0,0,-0.0416,-0.0474,-0.0391,-0.0352,-0.0347,-0.0297,-0.0296,-0.0294,-0.0243,-0.0243,-0.0243,-0.0243,-0.014,-0.0136,-0.0132,-0.0111,0,0,-0.012,-0.0118,0,0,0,0,0,0,0,0,-0.0419,-0.0413,-0.0358,-0.0354,-0.0349,-0.0281,-0.0287,-0.0232,-0.0243,-0.0283,-0.0243,-0.0243,-0.0185,-0.0177,-0.016,-0.0107,-0.0102,-0.012,-0.0117,-0.0115,-0.0114,0,0,0,0,0,0,0,-0.0424,-0.0416,-0.0353,-0.0357,-0.0352,-0.0322,-0.0314,-0.0276,-0.0236,-0.0279,-0.0275,-0.0265,-0.0182,-0.0164,-0.0158,-0.0101,-0.012,-0.0116,-0.0114,-0.0112,-0.0017,-0.0017,0,0,0,0,0,0,-0.0438,-0.0421,-0.0356,-0.035,-0.0385,-0.0321,-0.0311,-0.0303,-0.0236,-0.0226,-0.0265,-0.0263,-0.0171,-0.0162,-0.0154,-0.0121,-0.0115,-0.0112,-0.0109,-0.0017,-0.0017,-0.0017,0,0,0,0,0,0,-0.044,-0.0433,-0.036,-0.0383,-0.0372,-0.032,-0.0311,-0.0302,-0.0284,-0.0226,-0.0215,-0.0257,-0.0171,-0.0159,-0.012,-0.0117,-0.011,-0.0106,-0.0017,-0.0017,-0.0017,-0.0058,0,0,0,0,0,0,-0.0443,-0.0435,-0.0437,-0.0384,-0.0371,-0.0335,-0.0311,-0.03,-0.0278,-0.0274,-0.0215,-0.0205,-0.017,-0.0126,-0.0116,-0.0111,-0.0103,-0.0018,-0.0017,-0.0017,-0.0057,-0.0059,-0.0062,0,0,0,0,0,-0.0447,-0.0451,-0.0438,-0.043,-0.0375,-0.0335,-0.0325,-0.0287,-0.0278,-0.0271,-0.0231,-0.0207,-0.0118,-0.0123,-0.0111,-0.0105,-0.0018,-0.0017,-0.0017,-0.0056,-0.0059,-0.0061,0,0,0,0,0,0,-0.0489,-0.0444,-0.0429,-0.0419,-0.0382,-0.0326,-0.0318,-0.0292,-0.0255,-0.0254,-0.0202,-0.0189,-0.0155,-0.0125,-0.0132,-0.0077,-0.0065,-0.0062,-0.0099,-0.0101,-0.0103,-0.0113,-0.01,0,0,0,0,0,-0.0501,-0.0493,-0.0442,-0.0436,-0.042,-0.0371,-0.0352,-0.0325,-0.0284,-0.0268,-0.0225,-0.0183,-0.0144,-0.012,-0.0083,-0.0051,-0.0025,-0.004,-0.0042,-0.0044,-0.0044,-0.0006,-0.0005,-0.0016,-0.0016,-0.0016,0,0,-0.0517,-0.0491,-0.0487,-0.0445,-0.0415,-0.0394,-0.0359,-0.0334,-0.0314,-0.0262,-0.0228,-0.019,-0.0138,-0.0102,-0.0084,-0.0076,-0.0028,-0.0044,-0.0046,-0.0045,-0.0006,-0.0004,-0.0004,-0.0016,-0.0016,-0.0016,0,0,-0.0544,-0.0521,-0.0522,-0.0493,-0.0451,-0.0417,-0.0413,-0.0358,-0.0332,-0.0293,-0.0253,-0.0214,-0.0154,-0.0113,-0.0086,-0.0078,-0.0044,-0.0069,-0.0082,-0.0046,-0.0045,-0.0043,-0.0013,-0.0009,-0.0067,-0.0067,-0.0067,0,-0.0567,-0.0557,-0.0516,-0.0505,-0.0487,-0.0432,-0.0425,-0.0386,-0.0326,-0.0304,-0.029,-0.0199,-0.0158,-0.0107,-0.0103,-0.0083,-0.006,-0.0077,-0.0049,-0.0047,-0.0045,-0.0015,-0.001,-0.0069,-0.0069,-0.0068,-0.0068,0,-0.0587,-0.0579,-0.0577,-0.0546,-0.052,-0.0506,-0.0448,-0.042,-0.0384,-0.0341,-0.0287,-0.0226,-0.0172,-0.0152,-0.0123,-0.0085,-0.0074,-0.0061,-0.0045,-0.0047,-0.0015,-0.0008,-0.0072,-0.0071,-0.007,-0.007,0,0,-0.0638,-0.0602,-0.0601,-0.0599,-0.0542,-0.0527,-0.049,-0.044,-0.0422,-0.0355,-0.0323,-0.0248,-0.0213,-0.018,-0.0135,-0.0098,-0.0064,-0.0076,-0.0073,-0.0052,0.0012,0.0066,0.0078,-0.0048,-0.0047,-0.0046,0.0027,0,-0.0668,-0.0674,-0.0636,-0.0636,-0.0634,-0.0572,-0.0546,-0.0493,-0.0439,-0.0393,-0.0313,-0.0269,-0.0222,-0.0202,-0.0154,-0.0083,-0.0049,-0.0085,0.0016,0.0019,0.0062,0.0087,0.006,0.0127,0.0033,0.0034,0.0035,0,-0.0697,-0.0699,-0.0712,-0.069,-0.0682,-0.0669,-0.0623,-0.0589,-0.0502,-0.0462,-0.039,-0.0325,-0.0243,-0.0218,-0.0091,-0.0116,-0.006,-0.0008,-0.0004,0.0066,0.0084,0.0116,0.0143,0.0046,0.0045,0.0044,0.0044,0,-0.0761,-0.075,-0.0768,-0.0759,-0.0722,-0.0715,-0.0689,-0.0616,-0.0594,-0.0504,-0.0481,-0.0364,-0.0315,-0.0215,-0.0085,-0.0094,0.0048,0.0049,0.0149,0.0152,0.0162,0.0165,0.0119,0.0119,0.0119,0.0119,0.0119,0,-0.0807,-0.0819,-0.0805,-0.0815,-0.0839,-0.0783,-0.0784,-0.0737,-0.0674,-0.0658,-0.0527,-0.0486,-0.0314,-0.0202,-0.0095,0.0064,0.0045,0.0156,0.0182,0.0147,0.0149,0.0102,0.0099,0.0122,0.0121,0.012,0.012,0,-0.0867,-0.0855,-0.0881,-0.087,-0.0871,-0.0888,-0.0864,-0.0864,-0.0786,-0.0761,-0.0737,-0.0576,-0.0418,-0.0238,-0.0065,0.0049,0.0191,0.024,0.0193,0.0213,0.0267,0.0261,0.0358,0.0361,0.0363,0.0365,0.0367,0,-0.0895,-0.0916,-0.0941,-0.0973,-0.0971,-0.0986,-0.1,-0.0936,-0.093,-0.0819,-0.0816,-0.0645,-0.0527,-0.0215,0.0025,0.025,0.0234,0.0349,0.0336,0.028,0.0294,0.0285,0.0276,0.0323,0.0324,0.0325,0.0326,0,-0.095,-0.0962,-0.099,-0.1069,-0.1102,-0.1134,-0.1141,-0.1155,-0.1078,-0.104,-0.0953,-0.0844,-0.0503,-0.0222,0.0112,0.0236,0.0323,0.0376,0.0336,0.0274,0.0255,0.0266,0.0257,0.0334,0.0333,0.0332,0.0332,0.0332,-0.099,-0.1037,-0.1091,-0.1165,-0.1216,-0.1277,-0.1318,-0.1295,-0.1293,-0.1206,-0.1072,-0.0873,-0.0544,-0.0069,0.0176,0.0415,0.0397,0.0449,0.0443,0.0436,0.0426,0.0414,0.0519,0.052,0.052,0.052,0.052,0,-0.1027,-0.1103,-0.1184,-0.1277,-0.135,-0.1362,-0.1414,-0.141,-0.1412,-0.1284,-0.1159,-0.0799,-0.0438,-0.0107,0.0281,0.051,0.0482,0.054,0.0458,0.0449,0.0442,0.0429,0.0525,0.0525,0.0526,0.0526,0,0,-0.1052,-0.1143,-0.1199,-0.1363,-0.1444,-0.1525,-0.1564,-0.1538,-0.1451,-0.1332,-0.1167,-0.0878,-0.0459,-0.0177,0.0128,0.0327,0.0312,0.034,0.0312,0.0169,0.0158,0.0371,0.034,0,0,0,0,0]}],[{"header":{"parameterUnit":"m.s-1","parameterCategory":2,"la1":30.2991,"la2":30.254,"lo1":-89.0895,"lo2":-89.0444,"dy":0.0017,"dx":0.0017,"nx":28,"ny":28,"refTime":"2024-10-15T09:00:00:Z","depth":"4","parameterNumber":2,"parameterNumberName":"U-component_of_CURRENTS"},"data":[0,0,0,0,0,0,0,0,0,0,0,0,0,0,0,0,0,0,0,0,0,0,0,0,0,0,0,0,0,0,0,0,0,0,0,0,0,0,0,0,0,0,0,0,0,0,0,0,0,0,0,0,0,0,0,0,0,0,-0.1529,-0.153,0,-0.1575,-0.1575,-0.1575,-0.1614,-0.1615,-0.1615,-0.1616,-0.1659,-0.1659,-0.166,0,0,0,0,0,0,0,0,0,0,0,0,0,-0.1445,-0.1446,-0.1529,-0.153,-0.153,-0.1575,-0.1575,-0.1576,-0.1614,-0.1615,-0.1615,-0.1616,-0.1659,-0.1659,-0.166,0,0,0,0,0,0,0,0,0,0,0,0,0,-0.1483,-0.1447,-0.1529,-0.1556,-0.1559,-0.1575,-0.1575,-0.1576,-0.1614,-0.1615,-0.1616,-0.1616,-0.1658,-0.1659,-0.166,-0.1648,0,0,-0.1663,-0.1663,0,0,0,0,0,0,0,0,-0.1481,-0.1486,-0.1551,-0.1554,-0.1558,-0.1591,-0.1561,-0.16,-0.1614,-0.1591,-0.1616,-0.1617,-0.1636,-0.1639,-0.1643,-0.165,-0.1652,-0.1663,-0.1664,-0.1664,-0.1664,0,0,0,0,0,0,0,-0.1478,-0.1484,-0.1545,-0.1552,-0.1556,-0.1556,-0.1563,-0.1569,-0.1607,-0.1593,-0.1597,-0.1604,-0.1638,-0.1642,-0.1645,-0.1653,-0.1663,-0.1664,-0.1664,-0.1665,-0.1725,-0.1726,0,0,0,0,0,0,-0.1477,-0.1482,-0.1544,-0.1547,-0.1523,-0.1557,-0.1564,-0.1578,-0.1607,-0.1613,-0.1603,-0.1606,-0.164,-0.1644,-0.1646,-0.1703,-0.1664,-0.1665,-0.1665,-0.1724,-0.1725,-0.1726,0,0,0,0,0,0,-0.1475,-0.1482,-0.1542,-0.1516,-0.1524,-0.1558,-0.1573,-0.1579,-0.1611,-0.1615,-0.1621,-0.1634,-0.1641,-0.1645,-0.1676,-0.1703,-0.1665,-0.1666,-0.1723,-0.1724,-0.1726,-0.1773,0,0,0,0,0,0,-0.1473,-0.1482,-0.1501,-0.1516,-0.1526,-0.157,-0.1572,-0.1579,-0.1614,-0.1618,-0.1642,-0.1646,-0.1642,-0.1675,-0.1677,-0.1703,-0.1667,-0.1721,-0.1723,-0.1725,-0.177,-0.1776,-0.1781,0,0,0,0,0,-0.147,-0.1489,-0.1502,-0.151,-0.1549,-0.1571,-0.1576,-0.16,-0.1615,-0.1632,-0.1651,-0.1646,-0.1689,-0.1677,-0.1679,-0.1706,-0.172,-0.1723,-0.1725,-0.1768,-0.1775,-0.1781,0,0,0,0,0,0,-0.1464,-0.1496,-0.151,-0.154,-0.1563,-0.1578,-0.16,-0.1615,-0.1643,-0.1655,-0.1658,-0.1663,-0.1699,-0.1696,-0.1682,-0.1729,-0.1705,-0.1708,-0.1736,-0.1743,-0.1748,-0.1754,-0.1667,0,0,0,0,0,-0.1471,-0.1497,-0.1522,-0.1549,-0.1563,-0.1587,-0.1604,-0.1621,-0.1642,-0.1657,-0.1675,-0.1692,-0.1705,-0.172,-0.1729,-0.1755,-0.1752,-0.1774,-0.178,-0.1785,-0.1791,-0.1804,-0.1811,-0.1734,-0.1734,-0.1734,0,0,-0.1477,-0.1498,-0.1514,-0.155,-0.157,-0.1596,-0.16,-0.1634,-0.1662,-0.1656,-0.1706,-0.1713,-0.1716,-0.1746,-0.1762,-0.1751,-0.1807,-0.1788,-0.1792,-0.1795,-0.1807,-0.1814,-0.1821,-0.1736,-0.1735,-0.1735,0,0,-0.1487,-0.152,-0.1541,-0.1565,-0.1603,-0.1618,-0.1635,-0.1668,-0.1694,-0.1732,-0.1736,-0.1762,-0.1787,-0.1795,-0.18,-0.1841,-0.1834,-0.1849,-0.1884,-0.1897,-0.1903,-0.1909,-0.1922,-0.1928,-0.1853,-0.1853,-0.1853,0,-0.1494,-0.1524,-0.1551,-0.1576,-0.1601,-0.1633,-0.166,-0.1689,-0.173,-0.1754,-0.1757,-0.1804,-0.1808,-0.1841,-0.1857,-0.1854,-0.1861,-0.1858,-0.1904,-0.1909,-0.1914,-0.1926,-0.1932,-0.1856,-0.1856,-0.1855,-0.1855,0,-0.1509,-0.1547,-0.1562,-0.1607,-0.1638,-0.1668,-0.1708,-0.1748,-0.1782,-0.1806,-0.1858,-0.1864,-0.1891,-0.1898,-0.1891,-0.1932,-0.1926,-0.1907,-0.1886,-0.1925,-0.1935,-0.1941,-0.1859,-0.1859,-0.1858,-0.1857,0,0,-0.1486,-0.156,-0.1567,-0.1599,-0.1659,-0.1683,-0.1741,-0.1793,-0.1839,-0.1876,-0.1927,-0.195,-0.196,-0.1966,-0.1965,-0.1979,-0.2018,-0.1965,-0.1964,-0.1977,-0.2054,-0.195,-0.1946,-0.201,-0.2012,-0.2013,-0.205,0,-0.1491,-0.154,-0.1581,-0.1639,-0.1668,-0.1725,-0.1776,-0.1832,-0.1881,-0.194,-0.1961,-0.2004,-0.1984,-0.2005,-0.2016,-0.202,-0.2035,-0.201,-0.2016,-0.2016,-0.1918,-0.1949,-0.2016,-0.2054,-0.2055,-0.2056,-0.2057,0,-0.1482,-0.1522,-0.1575,-0.1661,-0.1682,-0.1727,-0.1818,-0.1868,-0.1952,-0.1992,-0.2038,-0.2061,-0.2098,-0.2071,-0.2096,-0.2084,-0.2076,-0.2072,-0.2073,-0.1962,-0.1922,-0.2006,-0.2067,-0.2066,-0.2065,-0.2065,-0.2064,0,-0.1432,-0.1516,-0.1561,-0.1589,-0.1689,-0.1735,-0.1793,-0.1883,-0.1937,-0.2029,-0.2075,-0.2118,-0.2149,-0.2149,-0.2146,-0.2128,-0.217,-0.2137,-0.2037,-0.203,-0.2092,-0.2086,-0.2153,-0.2153,-0.2153,-0.2153,-0.2153,0,-0.1402,-0.1442,-0.1548,-0.1571,-0.1638,-0.1718,-0.1799,-0.1865,-0.1965,-0.2024,-0.2096,-0.2136,-0.2171,-0.2199,-0.2178,-0.2127,-0.2193,-0.2049,-0.2032,-0.2112,-0.2108,-0.2097,-0.209,-0.2154,-0.2154,-0.2154,-0.2153,0,-0.1328,-0.14,-0.1458,-0.1572,-0.1614,-0.1659,-0.1792,-0.1845,-0.1954,-0.2034,-0.2066,-0.2164,-0.2191,-0.2218,-0.2228,-0.2156,-0.2127,-0.2094,-0.2199,-0.2186,-0.1972,-0.1967,-0.1974,-0.197,-0.1968,-0.1965,-0.1963,0,-0.1292,-0.1314,-0.1437,-0.1477,-0.1532,-0.1621,-0.1682,-0.1814,-0.1867,-0.2028,-0.2048,-0.2138,-0.2181,-0.2115,-0.215,-0.2115,-0.2084,-0.2061,-0.1992,-0.197,-0.1954,-0.1953,-0.1952,-0.1959,-0.1958,-0.1957,-0.1956,0,-0.1215,-0.1269,-0.1316,-0.1394,-0.1465,-0.154,-0.1635,-0.1668,-0.1816,-0.1937,-0.198,-0.2002,-0.2039,-0.2036,-0.2035,-0.2003,-0.2068,-0.203,-0.2035,-0.1969,-0.1952,-0.1938,-0.1941,-0.1946,-0.1948,-0.1949,-0.1949,0,-0.1157,-0.1169,-0.1237,-0.1295,-0.1381,-0.1428,-0.1498,-0.1568,-0.1641,-0.1821,-0.183,-0.1928,-0.2022,-0.1979,-0.1976,-0.1944,-0.1897,-0.1821,-0.1836,-0.1847,-0.1786,-0.1745,-0.1664,0,0,0,0,0,-0.109,-0.1093,-0.1136,-0.1195,-0.1276,-0.1323,-0.1453,-0.1529,-0.1679,-0.1665,-0.1745,-0.1773,-0.1785,-0.1833,-0.1768,-0.1905,-0.1898,-0.1822,-0.1816,-0.1891,-0.1903,-0.1841,0,0,0,0,0,0,-0.1046,-0.1076,-0.1091,-0.1096,-0.1117,-0.1193,-0.1269,-0.1376,-0.1379,-0.1535,-0.1544,-0.1661,-0.1687,-0.1786,-0.1726,-0.174,-0.1702,-0.1886,-0.1882,-0.1885,-0.1895,-0.1904,-0.1845,0,0,0,0,0]},{"header":{"parameterUnit":"m.s-1","parameterCategory":2,"la1":30.2991,"la2":30.254,"lo1":-89.0895,"lo2":-89.0444,"dy":0.0017,"dx":0.0017,"nx":28,"ny":28,"refTime":"2024-10-15T09:00:00:Z","depth":"4","parameterNumber":3,"parameterNumberName":"V-component_of_CURRENTS"},"data":[0,0,0,0,0,0,0,0,0,0,0,0,0,0,0,0,0,0,0,0,0,0,0,0,0,0,0,0,0,0,0,0,0,0,0,0,0,0,0,0,0,0,0,0,0,0,0,0,0,0,0,0,0,0,0,0,0,0,-0.0057,-0.0057,0,-0.0006,-0.0005,-0.0005,0.0025,0.0026,0.0026,0.0026,0.0095,0.0097,0.0098,0,0,0,0,0,0,0,0,0,0,0,0,0,-0.0092,-0.0092,-0.0057,-0.0057,-0.0056,-0.0006,-0.0005,-0.0005,0.0025,0.0026,0.0026,0.0026,0.0094,0.0096,0.0098,0,0,0,0,0,0,0,0,0,0,0,0,0,-0.0063,-0.0092,-0.0057,-0.0035,-0.0032,-0.0006,-0.0005,-0.0005,0.0025,0.0026,0.0026,0.0026,0.0094,0.0096,0.0099,0.0111,0,0,0.0107,0.0108,0,0,0,0,0,0,0,0,-0.0064,-0.0061,-0.0039,-0.0036,-0.0034,0.0004,0.0008,0.0035,0.0025,0.0003,0.0026,0.0026,0.0066,0.0071,0.008,0.0114,0.0117,0.0107,0.0108,0.011,0.011,0,0,0,0,0,0,0,-0.0066,-0.0063,-0.0037,-0.0038,-0.0035,-0.0015,-0.0011,0.0013,0.0033,0.0005,0.0008,0.0013,0.0068,0.0077,0.0082,0.0118,0.0107,0.0109,0.0111,0.0112,0.0165,0.0165,0,0,0,0,0,0,-0.0075,-0.0065,-0.0039,-0.0035,-0.0049,-0.0014,-0.001,-0.0009,0.0033,0.0039,0.0013,0.0015,0.0073,0.0079,0.0084,0.0096,0.011,0.0112,0.0113,0.0165,0.0165,0.0165,0,0,0,0,0,0,-0.0076,-0.0073,-0.0041,-0.0049,-0.0043,-0.0014,-0.0013,-0.0008,0.0,0.0038,0.0045,0.0015,0.0073,0.0081,0.0102,0.0099,0.0113,0.0115,0.0166,0.0165,0.0165,0.0124,0,0,0,0,0,0,-0.0077,-0.0074,-0.0079,-0.005,-0.0043,-0.0031,-0.0013,-0.0007,0.0003,0.0006,0.0043,0.0049,0.0074,0.0098,0.0105,0.0103,0.0117,0.0166,0.0165,0.0165,0.0125,0.0122,0.012,0,0,0,0,0,-0.0079,-0.0086,-0.008,-0.0077,-0.005,-0.0031,-0.0026,-0.0004,0.0003,0.0004,0.0029,0.0048,0.0101,0.01,0.0108,0.0107,0.0166,0.0166,0.0165,0.0127,0.0123,0.012,0,0,0,0,0,0,-0.0104,-0.0083,-0.0075,-0.0077,-0.0058,-0.0026,-0.0024,-0.0009,0.0012,0.0012,0.0048,0.0056,0.0074,0.0096,0.0093,0.0122,0.0136,0.0138,0.0104,0.0101,0.0098,0.0091,0.012,0,0,0,0,0,-0.0112,-0.0115,-0.0088,-0.009,-0.0083,-0.0055,-0.0046,-0.0031,-0.0008,0.0001,0.0028,0.0055,0.0079,0.0093,0.0117,0.0133,0.0158,0.0138,0.0135,0.0132,0.0132,0.0166,0.0166,0.0164,0.0164,0.0164,0,0,-0.0123,-0.0113,-0.0114,-0.0096,-0.0081,-0.0076,-0.0049,-0.004,-0.0035,0.0006,0.0018,0.0046,0.0081,0.0098,0.0108,0.0116,0.0145,0.0132,0.0129,0.0131,0.0165,0.0166,0.0166,0.0164,0.0164,0.0164,0,0,-0.0146,-0.0137,-0.0146,-0.0134,-0.0115,-0.0096,-0.0096,-0.0067,-0.0053,-0.0037,-0.0007,0.0019,0.0053,0.0081,0.0099,0.0095,0.0127,0.01,0.0083,0.0116,0.0116,0.0117,0.0145,0.0149,0.0101,0.01,0.01,0,-0.0161,-0.0169,-0.0145,-0.0149,-0.0145,-0.0109,-0.0117,-0.0096,-0.0063,-0.0051,-0.004,0.0018,0.0046,0.0075,0.0074,0.0088,0.011,0.0092,0.0112,0.0113,0.0114,0.0143,0.0148,0.0098,0.0099,0.0099,0.0099,0,-0.0187,-0.0195,-0.0199,-0.0194,-0.0185,-0.0186,-0.0155,-0.0142,-0.0122,-0.0096,-0.0064,-0.0019,0.0016,0.0029,0.0051,0.0076,0.0089,0.0102,0.0119,0.0112,0.0143,0.0148,0.0096,0.0096,0.0097,0.0097,0,0,-0.0215,-0.0219,-0.0221,-0.0232,-0.0211,-0.0209,-0.0198,-0.0176,-0.0171,-0.0128,-0.0112,-0.0062,-0.0031,-0.0009,0.0027,0.0059,0.0087,0.0081,0.0084,0.0106,0.0156,0.016,0.0167,0.0103,0.0104,0.0104,0.0173,0,-0.0244,-0.0275,-0.026,-0.0285,-0.0297,-0.0264,-0.026,-0.0234,-0.0201,-0.0175,-0.0115,-0.0087,-0.0047,-0.0032,0.0008,0.007,0.01,0.0067,0.0163,0.0166,0.0167,0.0173,0.0107,0.0177,0.0178,0.0179,0.018,0,-0.027,-0.0291,-0.0326,-0.034,-0.0342,-0.0348,-0.0336,-0.0324,-0.027,-0.0244,-0.0193,-0.0141,-0.0078,-0.0052,0.0057,0.0034,0.0087,0.0136,0.014,0.0162,0.018,0.0187,0.019,0.0189,0.0188,0.0188,0.0187,0,-0.0306,-0.0333,-0.0369,-0.0373,-0.0379,-0.0388,-0.0387,-0.0349,-0.0343,-0.0285,-0.027,-0.018,-0.014,-0.0052,0.006,0.0056,0.0178,0.0184,0.0238,0.0239,0.0233,0.0232,0.0248,0.0248,0.0247,0.0247,0.0247,0,-0.0338,-0.0365,-0.0395,-0.0414,-0.0457,-0.0438,-0.0462,-0.044,-0.041,-0.0405,-0.0311,-0.028,-0.014,-0.0047,0.005,0.0169,0.0173,0.0238,0.0258,0.0213,0.0209,0.0237,0.0235,0.025,0.0249,0.0249,0.0248,0,-0.0363,-0.0381,-0.0428,-0.0461,-0.0476,-0.0505,-0.0527,-0.0539,-0.0498,-0.0487,-0.0472,-0.0353,-0.0228,-0.0083,0.0067,0.0147,0.0263,0.0298,0.0242,0.0258,0.0303,0.0298,0.0361,0.0362,0.0363,0.0363,0.0364,0,-0.0375,-0.0404,-0.047,-0.0512,-0.0531,-0.0574,-0.0605,-0.0588,-0.0594,-0.053,-0.0526,-0.0403,-0.0312,-0.0087,0.0065,0.0258,0.0278,0.0339,0.0319,0.0301,0.0315,0.0309,0.0303,0.0365,0.0365,0.0365,0.0365,0,-0.04,-0.0427,-0.0468,-0.0561,-0.0614,-0.0669,-0.0705,-0.0716,-0.0686,-0.0654,-0.0567,-0.0432,-0.0288,-0.0098,0.0059,0.0194,0.0305,0.0345,0.0345,0.0327,0.0306,0.0318,0.0312,0.0367,0.0367,0.0367,0.0367,0,-0.0414,-0.0456,-0.0522,-0.0599,-0.0676,-0.074,-0.0754,-0.0753,-0.0748,-0.0669,-0.0641,-0.0465,-0.0356,-0.0131,0.0014,0.0155,0.018,0.0217,0.0223,0.0222,0.0166,0.0119,0.0142,0,0,0,0,0,-0.0423,-0.0479,-0.0558,-0.0647,-0.0726,-0.0772,-0.0811,-0.081,-0.0782,-0.0734,-0.0686,-0.0547,-0.0307,-0.0189,-0.0053,0.0014,0.0197,0.0179,0.024,0.0379,0.0377,0.0336,0,0,0,0,0,0,-0.0435,-0.0508,-0.0559,-0.0671,-0.0739,-0.0823,-0.0852,-0.0835,-0.0795,-0.0741,-0.0613,-0.0524,-0.029,-0.0394,-0.0055,-0.0008,0.0048,0.03,0.0303,0.0381,0.0379,0.0376,0.0333,0,0,0,0,0]}]]